When you browse on this site, cookies collect data to enhance your experience and personalize the content and advertising you see.
Visit our Privacy Policy to learn more. By continuing to use the site, you agree to this use of cookies and data.
  • In Hungary
  • List of Countries
  • For 7 days
  • Water Temperature
  • Weather Map
  • News
  • Weather Widgets
  • user-avatar
    Login

    Hourly Weather Zimnica

    Today, 7 December, Saturday

    Time Temperature Precipitation Wind Pressure Humidity
    00:00 0°C° 0 mm 5 mps 745 mmHg 57%
    01:00 0°C° 0 mm 5 mps 744 mmHg 58%
    02:00 0°C° 0 mm 5 mps 744 mmHg 60%
    03:00 +1°C° 0 mm 5 mps 743 mmHg 61%
    04:00 +1°C° 0 mm 6 mps 743 mmHg 62%
    05:00 +2°C° 0.1 mm 6 mps 743 mmHg 68%
    06:00 +2°C° 0.1 mm 6 mps 743 mmHg 74%
    07:00 +3°C° 0.1 mm 7 mps 743 mmHg 80%
    08:00 +4°C° 0 mm 7 mps 743 mmHg 78%
    09:00 +5°C° 0 mm 7 mps 743 mmHg 76%
    10:00 +5°C° 0 mm 8 mps 743 mmHg 74%
    11:00 +5°C° 0 mm 8 mps 743 mmHg 74%
    12:00 +6°C° 0 mm 7 mps 743 mmHg 75%
    13:00 +6°C° 0 mm 7 mps 743 mmHg 75%
    14:00 +6°C° 0 mm 7 mps 743 mmHg 77%
    15:00 +5°C° 0 mm 7 mps 743 mmHg 78%
    16:00 +5°C° 0 mm 7 mps 744 mmHg 79%
    17:00 +5°C° 0.1 mm 7 mps 744 mmHg 80%
    18:00 +5°C° 0.1 mm 7 mps 745 mmHg 80%
    19:00 +5°C° 0.1 mm 7 mps 745 mmHg 80%
    20:00 +5°C° 0.2 mm 7 mps 745 mmHg 81%
    21:00 +5°C° 0.2 mm 7 mps 745 mmHg 81%
    22:00 +5°C° 0.2 mm 7 mps 746 mmHg 82%
    23:00 +5°C° 0 mm 6 mps 746 mmHg 82%

    Tomorrow, 8 December, Sunday

    Time Temperature Precipitation Wind Pressure Humidity
    00:00 +4°C° 0 mm 6 mps 746 mmHg 81%
    01:00 +5°C° 0 mm 5 mps 746 mmHg 81%
    02:00 +5°C° 0 mm 5 mps 746 mmHg 81%
    03:00 +3°C° 0 mm 5 mps 746 mmHg 82%
    04:00 +4°C° 0 mm 4 mps 746 mmHg 82%
    05:00 +4°C° 0 mm 4 mps 746 mmHg 83%
    06:00 +4°C° 0 mm 4 mps 746 mmHg 84%
    07:00 +3°C° 0 mm 4 mps 746 mmHg 85%
    08:00 +3°C° 0 mm 5 mps 746 mmHg 81%
    09:00 +4°C° 0 mm 6 mps 745 mmHg 78%
    10:00 +5°C° 0 mm 6 mps 745 mmHg 74%
    11:00 +5°C° 0 mm 7 mps 744 mmHg 72%
    12:00 +6°C° 0 mm 7 mps 744 mmHg 69%
    13:00 +6°C° 0 mm 7 mps 743 mmHg 66%
    14:00 +6°C° 0 mm 7 mps 742 mmHg 68%
    15:00 +7°C° 0 mm 6 mps 742 mmHg 69%
    16:00 +7°C° 0 mm 6 mps 741 mmHg 71%
    17:00 +7°C° 0.1 mm 6 mps 741 mmHg 72%
    18:00 +7°C° 0.1 mm 6 mps 740 mmHg 73%
    19:00 +6°C° 0.1 mm 7 mps 740 mmHg 73%
    20:00 +6°C° 0.6 mm 7 mps 740 mmHg 76%
    21:00 +6°C° 0.6 mm 7 mps 739 mmHg 78%
    22:00 +6°C° 0.6 mm 7 mps 739 mmHg 80%
    23:00 +6°C° 0 mm 7 mps 739 mmHg 79%

    Day after tomorrow, 9 December, Monday

    Time Temperature Precipitation Wind Pressure Humidity
    00:00 +6°C° 0 mm 7 mps 738 mmHg 77%
    01:00 +8°C° 0 mm 7 mps 738 mmHg 76%
    02:00 +8°C° 0.4 mm 6 mps 738 mmHg 79%
    03:00 +8°C° 0.4 mm 6 mps 738 mmHg 81%
    04:00 +7°C° 0.4 mm 6 mps 737 mmHg 84%
    05:00 +7°C° 0.4 mm 5 mps 737 mmHg 85%
    06:00 +7°C° 0.4 mm 4 mps 737 mmHg 86%
    07:00 +7°C° 0.4 mm 4 mps 738 mmHg 88%
    08:00 +7°C° 0 mm 4 mps 738 mmHg 81%
    09:00 +7°C° 0 mm 4 mps 738 mmHg 75%
    10:00 +7°C° 0 mm 4 mps 738 mmHg 69%
    11:00 +7°C° 0 mm 4 mps 738 mmHg 67%
    12:00 +7°C° 0 mm 5 mps 738 mmHg 65%
    13:00 +7°C° 0 mm 5 mps 738 mmHg 63%
    14:00 +7°C° 0 mm 5 mps 737 mmHg 65%
    15:00 +6°C° 0 mm 4 mps 737 mmHg 67%
    16:00 +6°C° 0 mm 4 mps 737 mmHg 69%
    17:00 +5°C° 0 mm 4 mps 737 mmHg 71%
    18:00 +5°C° 0 mm 4 mps 737 mmHg 73%
    19:00 +4°C° 0 mm 4 mps 737 mmHg 75%
    20:00 +4°C° 0 mm 4 mps 737 mmHg 76%
    21:00 +4°C° 0 mm 4 mps 737 mmHg 78%
    22:00 +4°C° 0 mm 3 mps 737 mmHg 79%
    23:00 +3°C° 0 mm 4 mps 737 mmHg 80%

    10 December, Tuesday

    Time Temperature Precipitation Wind Pressure Humidity
    00:00 +3°C° 0 mm 4 mps 737 mmHg 80%
    01:00 +3°C° 0 mm 4 mps 737 mmHg 81%
    02:00 +3°C° 0.1 mm 4 mps 738 mmHg 83%
    03:00 +3°C° 0.1 mm 4 mps 738 mmHg 84%
    04:00 +4°C° 0.1 mm 4 mps 739 mmHg 86%
    05:00 +4°C° 0 mm 4 mps 739 mmHg 86%
    06:00 +4°C° 0 mm 4 mps 740 mmHg 86%
    07:00 +3°C° 0 mm 5 mps 741 mmHg 85%
    08:00 +3°C° 0 mm 5 mps 742 mmHg 83%
    09:00 +3°C° 0 mm 6 mps 742 mmHg 81%
    10:00 +3°C° 0 mm 6 mps 743 mmHg 79%
    11:00 +3°C° 0 mm 6 mps 743 mmHg 75%
    12:00 +4°C° 0 mm 7 mps 744 mmHg 72%
    13:00 +4°C° 0 mm 7 mps 745 mmHg 68%
    14:00 +3°C° 0.2 mm 7 mps 745 mmHg 75%
    15:00 +3°C° 0.2 mm 6 mps 746 mmHg 82%
    16:00 +3°C° 0.2 mm 6 mps 746 mmHg 89%
    17:00 +3°C° 0.4 mm 7 mps 747 mmHg 89%
    18:00 +3°C° 0.4 mm 7 mps 748 mmHg 88%
    19:00 +2°C° 0.4 mm 8 mps 749 mmHg 88%
    20:00 +2°C° 0.1 mm 7 mps 750 mmHg 87%
    21:00 +2°C° 0.1 mm 6 mps 751 mmHg 86%
    22:00 +1°C° 0.1 mm 5 mps 751 mmHg 85%
    23:00 +1°C° 0.1 mm 5 mps 752 mmHg 88%

    11 December, Wednesday

    Time Temperature Precipitation Wind Pressure Humidity
    00:00 +1°C° 0.1 mm 5 mps 752 mmHg 90%
    01:00 0°C° 0.1 mm 4 mps 753 mmHg 93%
    02:00 0°C° 0.1 mm 4 mps 753 mmHg 94%
    03:00 +1°C° 0.1 mm 3 mps 753 mmHg 94%
    04:00 +1°C° 0.1 mm 2 mps 754 mmHg 95%
    05:00 +1°C° 0 mm 2 mps 754 mmHg 94%
    06:00 +2°C° 0 mm 1 mps 754 mmHg 93%
    07:00 +1°C° 0 mm 0 mps 754 mmHg 92%
    08:00 +2°C° 0 mm 1 mps 754 mmHg 89%
    09:00 +3°C° 0 mm 1 mps 754 mmHg 85%
    10:00 +2°C° 0 mm 2 mps 754 mmHg 82%
    11:00 +1°C° 0 mm 3 mps 753 mmHg 79%
    12:00 +2°C° 0 mm 3 mps 753 mmHg 75%
    13:00 +1°C° 0 mm 4 mps 752 mmHg 72%
    14:00 +1°C° 0 mm 4 mps 751 mmHg 74%
    15:00 0°C° 0 mm 4 mps 751 mmHg 77%
    16:00 0°C° 0 mm 4 mps 751 mmHg 79%
    17:00 0°C° 0 mm 4 mps 750 mmHg 81%
    18:00 -1°C° 0 mm 4 mps 750 mmHg 83%
    19:00 -1°C° 0 mm 5 mps 750 mmHg 86%
    20:00 -1°C° 0 mm 4 mps 749 mmHg 87%
    21:00 -2°C° 0 mm 4 mps 749 mmHg 88%
    22:00 -1°C° 0 mm 3 mps 749 mmHg 89%
    23:00 -1°C° 0 mm 3 mps 749 mmHg 88%

    12 December, Thursday

    Time Temperature Precipitation Wind Pressure Humidity
    00:00 -1°C° 0 mm 2 mps 748 mmHg 88%
    01:00 -2°C° 0 mm 2 mps 748 mmHg 87%
    02:00 -1°C° 0 mm 2 mps 748 mmHg 86%
    03:00 -1°C° 0 mm 2 mps 747 mmHg 85%
    04:00 -1°C° 0 mm 2 mps 747 mmHg 84%
    05:00 -1°C° 0 mm 2 mps 747 mmHg 84%
    06:00 -1°C° 0 mm 2 mps 746 mmHg 85%
    07:00 -1°C° 0 mm 2 mps 746 mmHg 85%
    08:00 -1°C° 0 mm 3 mps 746 mmHg 81%
    09:00 0°C° 0 mm 3 mps 746 mmHg 78%
    10:00 +1°C° 0 mm 3 mps 746 mmHg 74%
    11:00 +1°C° 0 mm 3 mps 746 mmHg 70%
    12:00 +2°C° 0 mm 3 mps 745 mmHg 67%
    13:00 +2°C° 0 mm 3 mps 745 mmHg 63%
    14:00 +1°C° 0 mm 3 mps 745 mmHg 67%
    15:00 +1°C° 0 mm 2 mps 744 mmHg 70%
    16:00 +1°C° 0 mm 1 mps 744 mmHg 73%
    17:00 +1°C° 0 mm 1 mps 744 mmHg 72%
    18:00 +1°C° 0 mm 1 mps 744 mmHg 72%
    19:00 +1°C° 0 mm 1 mps 743 mmHg 72%
    20:00 -1°C° 0 mm 2 mps 743 mmHg 72%
    21:00 -1°C° 0 mm 2 mps 742 mmHg 72%
    22:00 -1°C° 0 mm 2 mps 742 mmHg 72%
    23:00 -1°C° 0 mm 2 mps 741 mmHg 74%
    Show more